Regional Weather Roundup
Issued by NWS

Home | Current Version | Previous Version | Graphics & Text | Print | Product List | Glossary Off
Versions: 1 2 3 4 5 6 7 8 9 10 11 12 13 14 15 16 17 18 19 20 21 22 23 24 25 26 27 28 29 30 31 32 33 34 35 36 37 38 39 40 41 42 43 44 45 46 47 48 49 50

000
ASUS43 KMKX 230900
RWRWI

WISCONSIN REGIONAL WEATHER ROUNDUP
NATIONAL WEATHER SERVICE MILWAUKEE/SULLIVAN WI
400 AM CDT THU OCT 23 2014

NOTE: "FAIR" INDICATES FEW OR NO CLOUDS BELOW 12,000 FEET WITH NO
SIGNIFICANT WEATHER AND/OR OBSTRUCTIONS TO VISIBILITY.

WIZ001-002-006>008-014>016-023>028-231000-
NORTHWEST WISCONSIN

CITY           SKY/WX    TMP DP  RH WIND       PRES   REMARKS
SUPERIOR ARPT  DRIZZLE   53  42  66 SW6       29.98F
ASHLAND        CLOUDY    50  41  71 S9        30.02F
HAYWARD        CLOUDY    49  40  71 S7        30.03F
SIREN          DRIZZLE   53  40  62 S9        29.99F
CUMBERLAND     RAIN      46  39  76 S7        30.02F
RICE LAKE      CLOUDY    48  42  77 SE9       30.05F
CHETEK         CLOUDY    47  44  87 SE8       30.05F
LADYSMITH      CLOUDY    46  43  88 SE7       30.08F
EAU CLAIRE     NOT AVBL
MENOMONIE      CLOUDY    49  44  81 E7        30.05F
NEW RICHMOND   DRIZZLE   49  43  78 S8        30.02S
OSCEOLA        RAIN      52  43  71 S8        30.03F
$$

WIZ003>005-009-010-017-018-231000-
NORTH CENTRAL WISCONSIN

CITY           SKY/WX    TMP DP  RH WIND       PRES   REMARKS
MANITOWISH WTR MOCLDY    45  37  73 S8        30.07F
ARBOR VITAE    CLOUDY    47  37  69 S10G16    30.08F
WOODRUFF       CLOUDY    47  37  69 S10G16    30.08F
RHINELANDER    CLOUDY    45  35  68 S9        30.10F
EAGLE RIVER    CLOUDY    42  35  75 S6        30.09F
LAND O LAKES   CLOUDY    44  37  74 S7        30.09F
PHILLIPS       CLOUDY    45  39  81 S7        30.08F
TOMAHAWK       CLOUDY    42  37  80 CALM      30.11F
MEDFORD        DRIZZLE   42  37  80 S7        30.10F
MERRILL        CLOUDY    42  38  86 S6        30.12F
$$

WIZ029-030-035-036-043>047-231000-
CENTRAL WISCONSIN

CITY           SKY/WX    TMP DP  RH WIND       PRES   REMARKS
WAUSAU         CLOUDY    41  37  86 SE5       30.12F
MOSINEE        MOCLDY    37  37 100 SE7       30.15F WCI  32
MARSHFIELD     LGT RAIN  43  38  82 S8        30.11F
STEVENS POINT  CLOUDY    38  36  91 S3        30.16F
WAUPACA        FOG       36  35  96 CALM      30.18F VSB 1/2
WAUTOMA        NOT AVBL
WISC RAPIDS    MOCLDY    40  37  89 SE5       30.15F
CAMP DOUGLAS   NOT AVBL
$$

WIZ011>013-019>022-031-037>040-048>050-231000-
NORTHEAST WISCONSIN

CITY           SKY/WX    TMP DP  RH WIND       PRES   REMARKS
ANTIGO         CLOUDY    37  37 100 S9        30.14F FOG     WCI  30
SHAWANO        PTCLDY    35  34  94 CALM      30.18F FOG
OCONTO         CLEAR     35  35 100 CALM      30.19F
STURGEON BAY   CLEAR     39  36  87 S8        30.20S WCI  34
GREEN BAY      CLEAR     38  36  92 S5        30.20F WCI  34
MANITOWOC      NOT AVBL
APPLETON       CLEAR     37  36  93 S6        30.19S WCI  33
CLINTONVILLE   FOG       32  30  93 CALM      30.18F VSB 1/4
OSHKOSH        CLEAR     37  35  92 S3        30.18F
$$

WIZ032>034-041-042-053>061-231000-
SOUTHWEST WISCONSIN

CITY           SKY/WX    TMP DP  RH WIND       PRES   REMARKS
LA CROSSE      CLOUDY    51  44  77 SE6       30.09F
SPARTA         CLOUDY    51  36  55 S8        30.12F
VIROQUA        CLOUDY    48  38  68 S10       30.11F
BOSCOBEL       CLOUDY    46  39  76 CALM      30.15F
PRAIRIE DU CHI CLOUDY    49  38  66 E6        30.13F
PLATTEVILLE    PTCLDY    41  36  80 CALM      30.16S
$$

WIZ056-057-062-063-064-067-068-231000-
SOUTH CENTRAL WISCONSIN

CITY           SKY/WX    TMP DP  RH WIND       PRES   REMARKS
REEDSBURG      CLOUDY    44  36  75 S8        30.15S
BARABOO/DELLS  CLOUDY    43  35  74 S3        30.15F
LONE ROCK      NOT AVBL
MINERAL POINT  PTCLDY    41  36  81 SE5       30.15S
MADISON        CLEAR     39  34  82 S7        30.19S WCI  34
MIDDLETON      CLEAR     38  34  87 CALM      30.18F
WATERTOWN      CLEAR     36  34  93 CALM      30.19S
MONROE         PTCLDY    39  34  81 S9        30.17F WCI  33
JANESVILLE     CLEAR     36  32  87 SE5       30.19F WCI  32
$$

WIZ051-052-058>065-066-070>072-231000-
SOUTHEAST WISCONSIN

CITY           SKY/WX    TMP DP  RH WIND       PRES   REMARKS
MILWAUKEE      PTCLDY    35  31  85 CALM      30.21F
WAUKESHA       CLEAR     32  32 100 CALM      30.21F
MILWAUKEE/TIMM CLEAR     32  28  86 CALM      30.22F
RACINE         CLEAR     34  32  92 S5        30.23F WCI  30
BURLINGTON     FOG       27  27 100 CALM      30.21F VSB 1/4
KENOSHA        CLEAR     36  34  92 S7        30.22F WCI  30
FOND DU LAC    CLEAR     36  32  85 S5        30.19F WCI  32
SHEBOYGAN      FOG       30  28  92 CALM      30.21S VSB 1/2
WEST BEND        N/A     30  30 100 CALM      30.20F FOG
JUNEAU         CLEAR     36  34  93 SE8       30.20F WCI  29
$$

LSZ147-162-231000-
LAKE SUPERIOR

STATION/POSITION TIME  TEMP    WIND        PRES    WAVE
                       AIR SEA DIR/SP/G            HT/PER
                 (UTC) (F)     (DEG/KT/KT) (MB)    (FT/S)
W MID LAKE BUOY  0750   48 46  130/ 12/ 16 1017.8F   1/ 3
DEVILS ISLAND    0800   50     180/  8/ 12 1016.7F
PORT WING        0800   54     180/  6/ 11 1015.9F
SAXON HARBOR     0800   53     200/  6/ 13 1016.6S
$$

LMZ867-665-643>646-231000-
LAKE MICHIGAN

STATION/POSITION TIME  TEMP    WIND        PRES    WAVE
                       AIR SEA DIR/SP/G            HT/PER
                 (UTC) (F)     (DEG/KT/KT) (MB)    (FT/S)
CHAMBERS ISLAND  0800   46     170/  4/ 10 1022.7F
N MID LAKE BUOY  0750   47 51  190/ 14/ 17 1023.6F   1/ 3
NORTHPORT PIER   0800   45     160/  4/  9 1023.0S
SISTER BAY       0842          170/  9/ 12   N/A
ALGOMA LAKESHORE 0841          240/ 13/ 14   N/A
KEWAUNEE LAKESHO 0800   44     210/  5/  7 1022.1F
SHEBOYGAN LAKESH 0800   42 51  220/  7/  8 1023.8F
PORT WASHINGTON  0840   39     260/  4/  6 1023.7F
ATWATER BUOY     0800   49     190/  8/  8 1024.3F
MILWAUKEE LAKESH 0800   45     230/  5/  6   N/A
S MID LAKE BUOY  0750   50 54  170/ 12/ 14 1024.5F
KENOSHA   LAKESH 0800   44     190/  4/  5 1023.7S
$$

TC  - TEMPERATURE IN CELSIUS
VSB - VISIBILITY IN STATUTE MILES
WCI - WIND CHILL INDEX
HX  - HEAT INDEX




USA.gov is the U.S. government's official web portal to all federal, state and local government web resources and services.